Location: Kra?nica
(53.4833°N, 14.6167°E)
Time: 19:23:38
(UTC+00:00)

USA 234 - Pass Details

Date: 23 May 2024
Orbit: 1100 x 1107 km, 123.0° (Epoch: 16 June)

Event Time Altitude Azimuth Distance (km) Brightness Sun altitude
Exits shadow 00:56:34 10° 180° (S) 2,938 5.0 -11.6°
Maximum altitude 01:01:37 24° 232° (SW) 2,096 4.2 -11.2°
Drops below altitude 10° 01:06:46 10° 284° (WNW) 2,964 5.4 -10.9°
Sets 01:09:50 0° 298° (WNW) 3,925 6.1 -10.6°
